Comanche, TX

11:16 PM CDT on April 29, 2017 (GMT -0500)
Comanche

Weather History for KMKN - August, 2014

Change the Weather History Date:

Wednesday, August 20, 2014

  Actual Average (KSEP) Record (KSEP)
Temperature  
Mean Temperature 86 °F -  
Max Temperature 97 °F 95 °F 105 °F (1984)
Min Temperature 74 °F 69 °F 59 °F (1992)
Cooling Degree Days 20    
Growing Degree Days 36 (Base 50)    
Moisture  
Dew Point 62 °F    
Average Humidity 51    
Maximum Humidity 81    
Minimum Humidity 26    
Precipitation  
Precipitation 0.00 in - - ()
Sea Level Pressure  
Sea Level Pressure 29.94 in    
Wind  
Wind Speed 11 mph (South)    
Max Wind Speed 21 mph    
Max Gust Speed 25 mph    
Visibility 10 miles    
Events      
Averages and records for this station are not official NWS values.
T = Trace of Precipitation, MM = Missing Value Source: NWS Daily Summary

Daily Weather History Graph

Daily Weather History Graph

Search for Another Location

Airport or City:

Trip Planner

Search our weather history database for the weather conditions in past years. The results will help you decide how hot, cold, wet, or windy it might be!

Date:

Astronomy

Aug. 20, 2014 Rise Set
Actual Time 7:02 AM CDT 8:12 PM CDT
Civil Twilight 6:36 AM CDT 8:38 PM CDT
Nautical Twilight 6:06 AM CDT 9:08 PM CDT
Astronomical Twilight 5:35 AM CDT 9:39 PM CDT
Moon 2:49 AM CDT (8/20) 4:52 PM CDT (8/20)
Length of Visible Light 14h 01m
Length of Day
13h 10m
Waning Crescent, 20% of the Moon is Illuminated
Aug 20
Waning Crescent
Aug 25
New
Sep 2
First Quarter
Sep 8
Full
Sep 15
Last Quarter

Hourly Weather History & Observations

Time (CDT) Temp. Heat Index Dew Point Humidity Pressure Visibility Wind Dir Wind Speed Gust Speed Precip Events Conditions
12:15 AM 78.1 °F - 64.9 °F 64% 29.91 in 10.0 mi SE 8.1 mph - N/A   Clear
12:35 AM 78.1 °F - 65.3 °F 65% 29.91 in 10.0 mi SSE 10.4 mph - N/A   Clear
12:55 AM 77.5 °F - 65.7 °F 67% 29.92 in 10.0 mi SE 5.8 mph - N/A   Clear
1:15 AM 76.6 °F - 66.2 °F 70% 29.92 in 10.0 mi SSE 6.9 mph - N/A   Clear
1:35 AM 76.3 °F - 66.4 °F 71% 29.92 in 10.0 mi SSE 4.6 mph - N/A   Clear
1:55 AM 77.0 °F - 66.7 °F 70% 29.91 in 10.0 mi SSE 6.9 mph - N/A   Clear
2:15 AM 77.2 °F - 66.0 °F 68% 29.91 in 10.0 mi South 8.1 mph - N/A   Clear
2:35 AM 77.2 °F - 65.1 °F 66% 29.91 in 10.0 mi South 9.2 mph - N/A   Clear
2:55 AM 77.2 °F - 64.4 °F 65% 29.91 in 10.0 mi South 8.1 mph - N/A   Clear
3:15 AM 76.6 °F - 64.0 °F 65% 29.91 in 10.0 mi South 8.1 mph - N/A   Clear
3:35 AM 76.1 °F - 63.9 °F 66% 29.91 in 10.0 mi South 9.2 mph - N/A   Clear
3:55 AM 77.0 °F - 63.5 °F 63% 29.91 in 10.0 mi South 11.5 mph 17.3 mph N/A   Clear
4:15 AM 77.0 °F - 63.5 °F 63% 29.92 in 10.0 mi South 13.8 mph 17.3 mph N/A   Clear
4:35 AM 77.0 °F - 63.5 °F 63% 29.92 in 10.0 mi South 12.7 mph 16.1 mph N/A   Scattered Clouds
4:55 AM 77.0 °F - 63.7 °F 63% 29.92 in 10.0 mi South 11.5 mph - N/A   Mostly Cloudy
5:15 AM 76.1 °F - 64.4 °F 67% 29.92 in 10.0 mi South 12.7 mph 17.3 mph N/A   Scattered Clouds
5:35 AM 76.1 °F - 65.3 °F 69% 29.92 in 10.0 mi South 15.0 mph 20.7 mph N/A   Mostly Cloudy
5:55 AM 75.2 °F - 65.8 °F 73% 29.93 in 10.0 mi South 11.5 mph 16.1 mph N/A   Scattered Clouds
6:15 AM 74.8 °F - 66.4 °F 75% 29.94 in 10.0 mi South 10.4 mph 16.1 mph N/A   Clear
6:35 AM 74.8 °F - 66.6 °F 75% 29.94 in 10.0 mi South 11.5 mph - N/A   Mostly Cloudy
6:55 AM 74.7 °F - 67.1 °F 77% 29.95 in 10.0 mi South 13.8 mph 18.4 mph N/A   Mostly Cloudy
7:15 AM 74.3 °F - 67.5 °F 79% 29.96 in 10.0 mi South 12.7 mph 19.6 mph N/A   Mostly Cloudy
7:35 AM 74.3 °F - 68.0 °F 81% 29.97 in 10.0 mi South 13.8 mph 20.7 mph N/A   Mostly Cloudy
7:55 AM 74.8 °F - 68.4 °F 80% 29.97 in 10.0 mi South 15.0 mph 19.6 mph N/A   Mostly Cloudy
8:15 AM 74.7 °F - 68.5 °F 81% 29.97 in 10.0 mi SSW 15.0 mph 20.7 mph N/A   Mostly Cloudy
8:35 AM 75.6 °F - 68.9 °F 80% 29.97 in 10.0 mi South 16.1 mph 21.9 mph N/A   Scattered Clouds
8:55 AM 76.1 °F - 69.1 °F 79% 29.98 in 10.0 mi South 9.2 mph - N/A   Mostly Cloudy
9:15 AM 77.2 °F - 69.3 °F 76% 29.99 in 10.0 mi SSW 16.1 mph 23.0 mph N/A   Mostly Cloudy
9:35 AM 78.3 °F - 69.1 °F 73% 29.99 in 10.0 mi South 16.1 mph 21.9 mph N/A   Mostly Cloudy
9:55 AM 79.7 °F - 68.0 °F 67% 29.99 in 10.0 mi SSW 13.8 mph 21.9 mph N/A   Mostly Cloudy
10:15 AM 82.9 °F 85.2 °F 66.4 °F 57% 29.99 in 10.0 mi SSW 20.7 mph 25.3 mph N/A   Scattered Clouds
10:35 AM 84.6 °F 86.1 °F 64.6 °F 51% 29.99 in 10.0 mi SSW 18.4 mph 25.3 mph N/A   Clear
10:55 AM 86.0 °F 87.3 °F 64.2 °F 48% 30.00 in 10.0 mi South 16.1 mph 25.3 mph N/A   Clear
11:15 AM 87.8 °F 88.5 °F 62.6 °F 43% 29.99 in 10.0 mi South 18.4 mph 25.3 mph N/A   Clear
11:35 AM 88.7 °F 89.1 °F 62.1 °F 41% 29.99 in 10.0 mi South 19.6 mph 23.0 mph N/A   Clear
11:55 AM 89.8 °F 89.7 °F 61.3 °F 38% 29.99 in 10.0 mi South 17.3 mph 24.2 mph N/A   Clear
12:15 PM 91.2 °F 91.8 °F 62.6 °F 38% 29.99 in 10.0 mi SSE 15.0 mph 20.7 mph N/A   Clear
12:35 PM 91.6 °F 91.3 °F 60.4 °F 35% 29.99 in 10.0 mi South 16.1 mph 21.9 mph N/A   Clear
12:55 PM 92.1 °F 92.1 °F 61.0 °F 35% 29.99 in 10.0 mi South 10.4 mph 23.0 mph N/A   Clear
1:15 PM 93.0 °F 93.4 °F 61.3 °F 35% 29.98 in 10.0 mi South 16.1 mph 25.3 mph N/A   Clear
1:35 PM 93.4 °F 92.8 °F 59.4 °F 32% 29.97 in 10.0 mi South 13.8 mph 21.9 mph N/A   Clear
1:55 PM 94.3 °F 93.4 °F 58.5 °F 30% 29.97 in 10.0 mi South 13.8 mph 21.9 mph N/A   Clear
2:15 PM 94.6 °F 93.9 °F 58.3 °F 30% 29.96 in 10.0 mi South 13.8 mph 24.2 mph N/A   Clear
2:35 PM 95.0 °F 94.0 °F 57.9 °F 29% 29.95 in 10.0 mi South 16.1 mph 20.7 mph N/A   Clear
2:55 PM 95.4 °F 95.3 °F 59.9 °F 31% 29.95 in 10.0 mi South 12.7 mph 23.0 mph N/A   Clear
3:15 PM 96.1 °F 96.0 °F 60.1 °F 30% 29.94 in 10.0 mi South 9.2 mph 24.2 mph N/A   Clear
3:35 PM 96.8 °F 96.7 °F 59.7 °F 29% 29.93 in 10.0 mi South 13.8 mph 21.9 mph N/A   Clear
3:55 PM 97.2 °F 97.2 °F 59.7 °F 29% 29.92 in 10.0 mi South 10.4 mph 18.4 mph N/A   Clear
4:15 PM 96.8 °F 96.2 °F 59.0 °F 28% 29.92 in 10.0 mi South 13.8 mph 23.0 mph N/A   Clear
4:35 PM 96.8 °F 95.8 °F 58.1 °F 27% 29.90 in 10.0 mi South 9.2 mph 18.4 mph N/A   Clear
4:55 PM 96.4 °F 95.7 °F 58.6 °F 28% 29.90 in 10.0 mi South 8.1 mph 19.6 mph N/A   Clear
5:15 PM 96.8 °F 95.8 °F 58.1 °F 27% 29.90 in 10.0 mi SSE 13.8 mph 17.3 mph N/A   Clear
5:35 PM 96.3 °F 95.5 °F 58.1 °F 28% 29.90 in 10.0 mi South 10.4 mph 19.6 mph N/A   Clear
5:55 PM 96.1 °F 94.8 °F 56.7 °F 27% 29.89 in 10.0 mi SSE 16.1 mph 19.6 mph N/A   Clear
6:15 PM 95.0 °F 93.4 °F 56.1 °F 27% 29.89 in 10.0 mi South 12.7 mph 20.7 mph N/A   Clear
6:35 PM 95.0 °F 93.0 °F 55.0 °F 26% 29.90 in 10.0 mi South 15.0 mph 20.7 mph N/A   Clear
6:55 PM 94.3 °F 92.1 °F 54.5 °F 26% 29.90 in 10.0 mi South 16.1 mph 21.9 mph N/A   Clear
7:15 PM 93.7 °F 91.4 °F 54.0 °F 26% 29.90 in 10.0 mi South 11.5 mph 21.9 mph N/A   Clear
7:35 PM 92.5 °F 90.7 °F 55.8 °F 29% 29.90 in 10.0 mi South 10.4 mph 17.3 mph N/A   Clear
7:55 PM 91.0 °F 89.4 °F 56.7 °F 31% 29.90 in 10.0 mi South 10.4 mph - N/A   Clear
8:15 PM 89.1 °F 87.7 °F 57.6 °F 34% 29.91 in 10.0 mi South 5.8 mph - N/A   Clear
8:35 PM 87.6 °F 86.9 °F 59.0 °F 38% 29.92 in 10.0 mi SSE 5.8 mph - N/A   Clear
8:55 PM 86.0 °F 85.7 °F 59.7 °F 41% 29.92 in 10.0 mi SE 5.8 mph - N/A   Clear
9:15 PM 86.0 °F 85.4 °F 59.4 °F 40% 29.93 in 10.0 mi SSE 6.9 mph - N/A   Clear
9:35 PM 85.1 °F 84.8 °F 59.9 °F 42% 29.94 in 10.0 mi SSE 6.9 mph - N/A   Clear
9:55 PM 84.7 °F 84.6 °F 59.9 °F 43% 29.95 in 10.0 mi SSE 6.9 mph - N/A   Clear
10:15 PM 84.6 °F 84.4 °F 59.9 °F 43% 29.95 in 10.0 mi SSE 5.8 mph - N/A   Clear
10:35 PM 84.2 °F 84.4 °F 60.6 °F 45% 29.96 in 10.0 mi South 5.8 mph - N/A   Mostly Cloudy
10:55 PM 83.5 °F 83.7 °F 60.8 °F 46% 29.97 in 10.0 mi SSE 5.8 mph - N/A   Mostly Cloudy
11:15 PM 82.6 °F 83.2 °F 61.5 °F 49% 29.97 in 10.0 mi SSE 8.1 mph - N/A   Scattered Clouds
11:35 PM 82.4 °F 83.4 °F 62.6 °F 51% 29.97 in 10.0 mi SSE 9.2 mph - N/A   Clear
11:55 PM 82.4 °F 84.1 °F 64.6 °F 55% 29.97 in 10.0 mi SSE 9.2 mph - N/A   Clear